User: anonymous   Login
Location: Bannatyne
(13.0833°N, 59.5333°W)
Time: 17:21:22
(UTC+00:00)
Language:

S-56A Canister/Altair - Orbit

View from above orbital plane
View from above orbital plane
View from above satellite
View from above satellite

Ground track
Ground track

The orbit data is extracted from the following two-line orbital elements,

1    82U 61004B   20026.33988247 -.00000031  00000-0  22454-4 0  9991
2    82  38.8576   8.2990 1173559 112.8751 260.0008 12.26059801790245
Epoch (UTC): 26 January 2020 08:09:25
Eccentricity: 0.1173559
inclination: 38.8576°
perigee height: 634 km
apogee height: 2498 km
right ascension of ascending node: 8.2990°
argument of perigee: 112.8751°
revolutions per day: 12.26059801
mean anomaly at epoch: 260.0008°
orbit number at epoch: 79024

The dashed part of the orbit path shows where the satellite is in the earth's shadow,  

DLR